| time (UTC) | temp F | wind direction | speed knots | gust knots | rain 1hr in | rain 24hr in | rain mn in | humidity % | barometer mb |
| 20260503233519 | 52 | 180 | 2.6 | 6.1 | 0.00 | 0.00 | 0.00 | 69 | 1013.4 |
| 20260503232519 | 52 | 180 | 2.6 | 6.1 | 0.00 | 0.00 | 0.00 | 69 | 1013.5 |
| 20260503231519 | 52 | 180 | 5.2 | 8.7 | 0.00 | 0.00 | 0.00 | 69 | 1013.6 |
| 20260503230519 | 52 | 203 | 4.3 | 10.4 | 0.00 | 0.00 | 0.00 | 68 | 1013.7 |
| 20260503225519 | 52 | 270 | 5.2 | 11.3 | 0.00 | 0.00 | 0.00 | 67 | 1014.1 |
| 20260503224518 | 53 | 203 | 4.3 | 12.2 | 0.00 | 0.00 | 0.00 | 65 | 1014.1 |
| 20260503223519 | 54 | 270 | 7.0 | 14.8 | 0.00 | 0.00 | 0.00 | 63 | 1014.1 |
| 20260503222558 | 54 | 270 | 5.2 | 11.3 | 0.00 | 0.00 | 0.00 | 64 | 1014.2 |
| 20260503221519 | 55 | 270 | 7.8 | 16.5 | 0.00 | 0.00 | 0.00 | 62 | 1014.2 |
| 20260503220558 | 56 | 270 | 9.6 | 20.0 | 0.00 | 0.00 | 0.00 | 60 | 1014.2 |
| 20260503215518 | 57 | 270 | 10.4 | 22.6 | 0.00 | 0.00 | 0.00 | 57 | 1014.0 |
| 20260503214518 | 60 | 270 | 7.8 | 22.6 | 0.00 | 0.00 | 0.00 | 44 | 1013.8 |
| 20260503213518 | 60 | 270 | 6.1 | 16.5 | 0.00 | 0.00 | 0.00 | 43 | 1013.9 |
| 20260503212559 | 61 | 248 | 7.0 | 15.6 | 0.00 | 0.00 | 0.00 | 42 | 1013.8 |
| 20260503211519 | 61 | 225 | 6.1 | 13.0 | 0.00 | 0.00 | 0.00 | 41 | 1013.9 |
| 20260503210518 | 61 | 270 | 8.7 | 17.4 | 0.00 | 0.00 | 0.00 | 41 | 1014.1 |
| 20260503205538 | 61 | 270 | 7.8 | 16.5 | 0.00 | 0.00 | 0.00 | 42 | 1014.1 |
| 20260503204518 | 61 | 225 | 7.0 | 15.6 | 0.00 | 0.00 | 0.00 | 41 | 1014.2 |
| 20260503203518 | 60 | 225 | 7.8 | 18.2 | 0.00 | 0.00 | 0.00 | 42 | 1014.3 |
| 20260503202518 | 61 | 293 | 6.1 | 17.4 | 0.00 | 0.00 | 0.00 | 41 | 1014.4 |
| 20260503201518 | 62 | 270 | 6.1 | 13.9 | 0.00 | 0.00 | 0.00 | 42 | 1014.4 |
| 20260503200538 | 61 | 225 | 4.3 | 10.4 | 0.00 | 0.00 | 0.00 | 42 | 1014.6 |
| 20260503195558 | 61 | 225 | 7.0 | 16.5 | 0.00 | 0.00 | 0.00 | 40 | 1014.7 |
| 20260503194539 | 62 | 293 | 6.1 | 18.2 | 0.00 | 0.00 | 0.00 | 40 | 1014.9 |
| 20260503193519 | 62 | 270 | 6.1 | 15.6 | 0.00 | 0.00 | 0.00 | 41 | 1015.0 |
| 20260503192518 | 62 | 270 | 5.2 | 13.0 | 0.00 | 0.00 | 0.00 | 42 | 1015.2 |
| 20260503191518 | 63 | 248 | 6.1 | 16.5 | 0.00 | 0.00 | 0.00 | 41 | 1015.3 |
| 20260503190518 | 62 | 203 | 8.7 | 20.0 | 0.00 | 0.00 | 0.00 | 40 | 1015.5 |
| 20260503185518 | 62 | 225 | 8.7 | 17.4 | 0.00 | 0.00 | 0.00 | 39 | 1015.7 |
| 20260503184520 | 62 | 225 | 7.8 | 22.6 | 0.00 | 0.00 | 0.00 | 41 | 1015.8 |
| 20260503183518 | 63 | 248 | 6.1 | 16.5 | 0.00 | 0.00 | 0.00 | 40 | 1016.0 |
| 20260503182518 | 62 | 270 | 7.8 | 17.4 | 0.00 | 0.00 | 0.00 | 38 | 1016.0 |
| 20260503181518 | 62 | 270 | 7.0 | 16.5 | 0.00 | 0.00 | 0.00 | 41 | 1016.1 |
| 20260503180518 | 62 | 270 | 6.1 | 13.0 | 0.00 | 0.00 | 0.00 | 43 | 1016.2 |
| 20260503175518 | 61 | 293 | 6.1 | 15.6 | 0.00 | 0.00 | 0.00 | 42 | 1016.4 |
| 20260503174518 | 63 | 270 | 5.2 | 12.2 | 0.00 | 0.00 | 0.00 | 41 | 1016.6 |
| 20260503173540 | 61 | 270 | 8.7 | 20.9 | 0.00 | 0.00 | 0.00 | 39 | 1016.6 |
| 20260503172518 | 62 | 270 | 7.0 | 14.8 | 0.00 | 0.00 | 0.00 | 41 | 1016.7 |
| 20260503171520 | 62 | 270 | 6.1 | 17.4 | 0.00 | 0.00 | 0.00 | 42 | 1016.9 |
| 20260503170518 | 61 | 270 | 6.1 | 15.6 | 0.00 | 0.00 | 0.00 | 42 | 1017.0 |
| 20260503150518 | 57 | 293 | 6.1 | 13.9 | 0.00 | 0.00 | 0.00 | 53 | 1018.1 |
| 20260503130518 | 48 | 225 | 5.2 | 10.4 | 0.00 | 0.00 | 0.00 | 61 | 1018.4 |
| 20260503110520 | 38 | 180 | 2.6 | 7.0 | 0.00 | 0.00 | 0.00 | 78 | 1018.0 |
| 20260503081520 | 34 | 203 | 0.9 | 1.7 | 0.00 | 0.00 | 0.00 | 85 | 1018.0 |
| 20260503080519 | 34 | 203 | 0.9 | 2.6 | 0.00 | 0.00 | 0.00 | 85 | 1018.0 |
| 20260503072519 | 35 | 0.0 | 0.0 | 0.00 | 0.00 | 0.00 | 85 | 1018.1 | |
| 20260503071519 | 35 | 0.0 | 1.7 | 0.00 | 0.00 | 0.00 | 85 | 1018.1 | |
| 20260503070518 | 34 | 0.0 | 0.9 | 0.00 | 0.00 | 0.00 | 86 | 1018.2 | |
| 20260503054519 | 36 | 225 | 0.9 | 1.7 | 0.00 | 0.00 | 0.00 | 83 | 1018.5 |
| 20260503053518 | 36 | 225 | 0.9 | 1.7 | 0.00 | 0.00 | 0.00 | 82 | 1018.6 |
| 20260503052518 | 36 | 225 | 0.9 | 1.7 | 0.00 | 0.00 | 0.00 | 82 | 1018.5 |
| 20260503051519 | 36 | 225 | 0.9 | 1.7 | 0.00 | 0.00 | 0.00 | 82 | 1018.6 |
| 20260503050518 | 36 | 0.0 | 1.7 | 0.00 | 0.00 | 0.00 | 82 | 1018.5 | |
| 20260503045519 | 36 | 0.0 | 1.7 | 0.00 | 0.00 | 0.00 | 82 | 1018.4 | |
| 20260503044518 | 36 | 0.0 | 0.9 | 0.00 | 0.00 | 0.00 | 81 | 1018.5 | |
| 20260503043519 | 36 | 0.0 | 0.9 | 0.00 | 0.00 | 0.00 | 81 | 1018.4 | |
| 20260503042539 | 37 | 0.0 | 2.6 | 0.00 | 0.00 | 0.00 | 80 | 1018.4 | |
| 20260503041518 | 37 | 0.0 | 0.0 | 0.00 | 0.00 | 0.00 | 80 | 1018.4 | |
| 20260503040518 | 37 | 0.0 | 0.0 | 0.00 | 0.00 | 0.00 | 79 | 1018.4 | |
| 20260503040019 | 37 | 0.0 | 0.9 | 0.00 | 0.00 | 0.00 | 79 | 1018.5 | |
| 20260503035058 | 38 | 0.0 | 1.7 | 0.00 | 0.00 | 0.00 | 77 | 1018.5 | |
| 20260503034019 | 38 | 0.0 | 0.9 | 0.00 | 0.00 | 0.00 | 77 | 1018.5 | |
| 20260503033019 | 39 | 0.0 | 1.7 | 0.00 | 0.00 | 0.00 | 75 | 1018.5 | |
| 20260503032018 | 38 | 0.0 | 0.9 | 0.00 | 0.00 | 0.00 | 75 | 1018.5 | |
| 20260503031018 | 39 | 0.0 | 0.9 | 0.00 | 0.00 | 0.00 | 74 | 1018.5 | |
| 20260503030018 | 40 | 203 | 0.9 | 1.7 | 0.00 | 0.00 | 0.00 | 74 | 1018.6 |
| 20260503025018 | 40 | 0.0 | 0.9 | 0.00 | 0.00 | 0.00 | 72 | 1018.7 | |
| 20260503024019 | 41 | 203 | 0.9 | 1.7 | 0.00 | 0.00 | 0.00 | 71 | 1018.8 |
| 20260503023018 | 41 | 0.0 | 1.7 | 0.00 | 0.00 | 0.00 | 70 | 1018.7 | |
| 20260503022018 | 42 | 0.0 | 1.7 | 0.00 | 0.00 | 0.00 | 70 | 1018.7 | |
| 20260503021018 | 42 | 293 | 0.9 | 1.7 | 0.00 | 0.00 | 0.00 | 71 | 1018.7 |
| 20260503020018 | 42 | 0.0 | 0.0 | 0.00 | 0.00 | 0.00 | 70 | 1018.7 | |
| 20260503015018 | 42 | 0.0 | 0.9 | 0.00 | 0.00 | 0.00 | 71 | 1018.6 | |
| 20260503014018 | 42 | 0.0 | 0.0 | 0.00 | 0.00 | 0.00 | 70 | 1018.6 | |
| 20260503013018 | 42 | 0.0 | 0.9 | 0.00 | 0.00 | 0.00 | 71 | 1018.5 | |
| 20260503012018 | 42 | 0.0 | 1.7 | 0.00 | 0.00 | 0.00 | 69 | 1018.4 | |
| 20260503011018 | 43 | 0.0 | 0.9 | 0.00 | 0.00 | 0.00 | 66 | 1018.4 | |
| 20260503010018 | 43 | 0.0 | 0.9 | 0.00 | 0.00 | 0.00 | 67 | 1018.5 | |
| 20260503005019 | 43 | 0.0 | 1.7 | 0.00 | 0.00 | 0.00 | 65 | 1018.3 | |
| 20260503004020 | 43 | 0.0 | 1.7 | 0.00 | 0.00 | 0.00 | 62 | 1018.3 | |
| 20260503003019 | 43 | 0.0 | 0.9 | 0.00 | 0.00 | 0.00 | 60 | 1018.3 | |
| 20260503002018 | 44 | 315 | 0.9 | 2.6 | 0.00 | 0.00 | 0.00 | 56 | 1018.1 |
| 20260503001038 | 45 | 315 | 0.9 | 2.6 | 0.00 | 0.00 | 0.00 | 55 | 1018.0 |
| 20260503000020 | 46 | 315 | 1.7 | 3.5 | 0.00 | 0.00 | 0.00 | 56 | 1018.2 |
| 20260502235018 | 46 | 338 | 0.9 | 1.7 | 0.00 | 0.00 | 0.00 | 56 | 1018.1 |
| 20260502234020 | 47 | 270 | 0.9 | 2.6 | 0.00 | 0.00 | 0.00 | 52 | 1018.2 |